COSMOS 1867

Last updated on Wed Jul 02 2025 00:02:14 GMT+0000 (Coordinated Universal Time)

1 18187U 87060A 25182.56383035 -.00000044 00000+0 21142-4 0 9999 2 18187 65.0116 289.9481 0015537 258.7629 101.1709 14.31453309983986
UTC large
Height (km)
Speed (km/s)
/
Latitude / Longitude
Inclination (degrees)
Orbital Period (minutes)
Azimuth
Elevation
Range (km)
Doppler Factor

Next 0 passes for location: London (51.5072 / 0.1276)

Sorry there are no passes over London.